Location: Regensburg
(48.4565°N, 10.3217°E)
Time: 06:32:40
(UTC+01:00)

ISS - Pass Details

Date: 06 January 2018
Orbit: 402 x 407 km, 51.6° (Epoch: 19 January)

Event Time Altitude Azimuth Distance (km) Brightness Sun altitude
Exits shadow 05:13:43 16° 64° (ENE) 1,163 -0.9 -28.2°
Drops below altitude 10° 05:14:30 10° 67° (ENE) 1,470 -0.2 -28.1°
Sets 05:16:36 0° 71° (ENE) 2,333 1.1 -27.7°
